Wind_Speed
43 44 44 45 44 44 45 45 45 45 45 46 47 48 49 48 47 48 48 48 48 48 49 49 49 49 49 49 49 50 50 50 49 49 49 49 48 48
41 42 43 43 43 43 43 43 44 45 44 44 44 45 46 47 46 46 47 46 47 47 48 49 49 49 49 49 50 50 51 50 49 48 48 48 48 48
41 41 42 42 42 43 43 43 43 43 43 42 42 43 44 45 44 44 45 45 46 46 46 47 47 47 47 48 48 49 49 50 49 48 47 47 47 47
40 41 41 42 42 42 42 42 42 41 41 41 41 41 42 43 44 44 44 45 45 46 46 46 47 47 46 46 47 47 47 47 47 47 46 47 47 47
38 39 39 39 39 40 40 40 41 41 40 40 40 40 41 42 44 44 45 45 46 46 47 47 47 47 46 45 44 44 45 45 45 45 45 46 47 47
35 36 36 36 36 37 38 38 39 39 40 39 39 39 41 41 42 44 44 44 44 45 45 45 45 44 44 44 43 43 44 44 44 45 45 46 46 46
34 33 33 34 34 35 36 37 37 37 37 38 38 39 39 39 40 42 43 42 42 42 41 41 41 41 42 43 43 43 43 44 44 44 44 44 44 45
32 32 32 32 32 33 34 34 34 34 35 35 35 36 36 37 38 39 40 39 38 38 38 38 39 40 40 41 41 41 41 42 42 42 43 43 44 44
32 32 32 32 31 31 32 31 31 31 32 33 33 33 33 33 33 34 35 35 35 35 36 36 37 37 39 40 40 39 40 40 41 42 42 42 43 43
30 31 30 31 31 31 30 29 29 29 30 30 30 30 30 30 31 31 33 33 33 33 34 34 35 36 36 37 38 38 39 40 40 40 40 40 41 41
29 29 29 30 30 29 29 28 28 28 28 27 26 27 28 29 30 31 31 32 32 32 32 33 32 33 34 34 35 35 36 37 38 39 39 39 40 40
29 29 29 28 28 28 28 27 26 26 26 26 25 26 27 28 28 29 29 30 30 29 30 31 31 31 32 33 34 34 34 35 36 37 37 37 38 39
28 28 27 26 25 25 25 25 25 25 25 25 25 25 26 26 27 27 27 27 27 28 28 30 30 31 32 32 33 33 34 34 34 35 35 36 36 37
26 25 25 24 24 24 24 24 24 24 24 24 24 24 25 25 25 26 26 26 25 25 26 27 28 30 30 30 30 31 31 31 32 33 33 33 33 34
25 24 23 22 22 22 22 22 22 22 23 23 23 23 23 23 23 24 23 23 22 22 23 24 25 26 26 27 27 27 28 29 30 30 30 30 30 30
23 22 22 21 21 21 20 20 21 21 22 22 23 23 23 23 23 22 21 21 20 20 21 23 23 24 24 24 25 25 26 27 27 27 27 27 26 27
20 20 20 20 20 20 19 19 20 20 21 21 22 22 22 22 22 20 20 20 20 20 21 22 22 22 22 22 23 23 24 24 24 25 25 24 25 25
20 20 19 19 19 19 19 19 19 20 20 20 20 20 20 20 20 20 20 20 20 20 20 20 21 21 20 20 20 21 21 21 21 22 22 22 22 22
19 19 18 19 19 19 19 19 19 19 19 19 19 19 19 19 19 19 19 19 19 19 19 19 19 19 19 18 18 18 18 18 18 18 19 19 19 19
19 19 19 19 19 19 20 20 19 19 19 19 18 18 18 19 19 19 19 18 17 17 17 16 16 17 17 17 16 16 16 16 15 16 16 17 16 16
19 19 19 19 19 19 19 19 19 19 18 18 17 17 17 17 18 18 17 16 15 15 14 14 14 14 14 15 14 14 14 14 14 14 14 14 14 13
20 20 20 20 19 19 19 19 18 18 18 18 17 17 16 16 16 16 15 15 14 13 13 12 12 11 11 12 12 12 13 13 13 13 13 13 12 12
19 18 18 18 19 19 19 19 18 18 18 17 16 16 16 15 14 13 13 13 13 12 12 11 11 11 11 11 11 10 10 11 11 11 11 11 10 10
Wind_Direction
269 267 267 267 266 266 266 266 265 263 262 262 261 261 259 257 258 259 259 260 261 262 262 262 263 263 263 263 262 261 260 260 259 259 260 261 262 262
271 270 268 267 266 266 266 266 266 265 264 264 262 261 259 257 258 259 259 261 262 262 263 262 262 264 264 264 263 262 260 259 258 259 259 260 261 262
271 270 269 267 267 266 265 265 266 266 265 263 262 260 259 258 257 258 260 262 263 263 263 263 263 264 265 264 263 262 260 259 258 258 259 260 260 261
271 271 270 268 266 266 265 265 265 265 264 263 261 260 259 259 258 260 262 263 264 264 264 264 263 263 264 265 263 262 260 259 258 258 258 259 260 260
274 272 271 270 268 266 266 266 265 265 264 262 260 260 261 261 261 261 262 263 264 265 265 264 263 262 263 263 263 262 260 258 258 258 257 258 258 259
275 273 271 270 269 267 266 266 266 265 264 262 261 262 262 263 263 262 263 264 264 265 264 263 262 261 261 261 262 261 259 258 258 258 258 258 259 259
275 273 272 271 268 267 267 268 267 266 264 262 262 263 263 264 264 263 263 263 264 264 263 262 261 260 260 261 261 259 258 258 258 258 258 259 259 259
275 273 272 271 268 268 269 268 268 266 264 262 263 263 263 264 264 263 263 262 263 261 262 262 261 259 259 260 259 257 256 257 256 256 257 258 259 259
275 274 273 272 268 268 268 268 267 266 266 265 264 264 264 263 264 264 263 262 262 261 261 261 261 259 258 257 255 255 257 257 256 255 257 258 259 258
276 275 273 272 270 269 268 268 268 268 267 265 264 264 264 264 265 265 264 264 264 263 264 263 261 259 257 255 253 254 256 255 256 256 257 258 258 258
276 275 274 273 270 268 267 267 266 266 265 263 261 263 264 265 265 265 267 266 265 265 264 265 263 261 258 256 257 258 257 256 257 257 258 258 258 258
277 275 274 273 271 268 266 264 263 263 263 261 261 263 264 266 267 267 267 268 266 266 265 265 264 262 259 258 259 260 259 259 259 259 259 259 259 260
277 274 272 270 269 266 264 263 262 262 262 262 263 264 266 268 268 267 266 267 267 267 266 265 265 263 264 262 260 259 259 259 260 260 260 261 262 263
276 273 270 268 267 264 264 264 263 264 263 263 264 264 267 268 268 268 267 268 267 267 266 265 264 264 264 262 261 259 259 261 262 262 263 263 264 264
274 271 269 266 264 263 263 262 263 264 265 266 268 267 269 270 270 270 270 268 267 267 266 265 264 265 265 263 261 260 261 261 262 263 263 263 265 265
272 268 266 264 262 262 262 261 263 266 268 268 269 269 270 271 271 271 269 268 269 269 269 269 268 266 265 263 262 261 262 263 263 263 263 264 266 266
272 269 266 263 261 260 260 259 262 264 266 268 270 270 269 270 269 269 268 267 267 270 271 271 268 266 264 263 262 263 264 264 264 262 261 264 265 266
271 268 267 264 260 259 260 261 263 266 269 271 272 271 270 269 267 268 269 268 269 271 271 270 268 266 264 262 262 263 264 264 262 259 260 263 265 267
272 270 269 267 263 260 260 263 264 266 269 272 272 271 268 267 267 268 269 269 272 272 271 271 268 266 262 261 262 263 264 263 262 261 261 263 267 268
273 271 270 269 267 263 263 264 265 266 268 270 272 271 269 268 269 270 270 270 271 271 270 269 268 265 262 261 262 263 264 264 263 264 264 267 271 270
272 272 271 270 267 263 262 262 264 265 267 269 269 269 267 265 267 268 267 267 267 268 267 267 267 265 262 261 262 264 263 263 262 264 265 267 269 269
271 270 269 268 265 262 261 262 263 264 266 266 267 266 266 267 265 262 261 263 264 264 265 266 268 267 266 264 262 260 260 259 261 264 265 268 270 269
269 268 267 266 263 260 260 261 261 262 263 265 264 263 263 264 262 259 256 256 256 259 261 264 267 267 267 265 263 260 258 260 262 264 265 265 266 268
Height
5598 5598 5598 5597 5597 5596 5596 5596 5597 5598 5599 5599 5600 5600 5602 5604 5606 5608 5610 5612 5614 5615 5617 5618 5620 5621 5623 5624 5626 5627 5629 5631 5634 5636 5639 5641 5643 5645
5586 5586 5586 5585 5585 5584 5584 5584 5584 5585 5586 5586 5587 5588 5589 5591 5593 5595 5598 5599 5601 5602 5604 5605 5607 5608 5609 5611 5612 5614 5616 5618 5621 5623 5625 5628 5630 5632
5575 5574 5574 5573 5573 5572 5572 5572 5572 5572 5573 5574 5574 5575 5577 5579 5581 5583 5584 5586 5588 5589 5590 5592 5593 5595 5596 5597 5599 5600 5602 5604 5607 5610 5612 5614 5616 5618
5563 5563 5562 5561 5561 5560 5560 5560 5560 5560 5561 5562 5563 5564 5565 5567 5569 5570 5572 5573 5574 5576 5577 5578 5580 5581 5583 5584 5585 5587 5589 5591 5594 5596 5599 5601 5603 5604
5552 5551 5550 5550 5549 5549 5549 5549 5549 5549 5549 5550 5551 5552 5553 5555 5556 5558 5559 5560 5561 5562 5564 5565 5567 5568 5570 5571 5572 5574 5576 5579 5581 5583 5585 5587 5589 5591
5541 5540 5540 5539 5539 5538 5538 5538 5537 5537 5537 5538 5540 5541 5542 5543 5544 5545 5546 5547 5549 5550 5550 5552 5553 5554 5556 5558 5560 5561 5563 5565 5568 5570 5572 5575 5576 5578
5532 5531 5530 5529 5529 5528 5528 5527 5527 5526 5526 5527 5529 5530 5531 5532 5533 5533 5534 5535 5536 5537 5538 5539 5540 5542 5543 5545 5547 5549 5551 5553 5555 5558 5560 5562 5564 5566
5523 5522 5521 5520 5520 5519 5518 5518 5517 5516 5516 5517 5518 5519 5520 5521 5521 5522 5522 5524 5525 5527 5526 5527 5527 5529 5531 5533 5535 5537 5539 5541 5543 5545 5548 5550 5552 5554
5514 5513 5512 5511 5510 5510 5509 5509 5508 5508 5508 5508 5509 5509 5510 5511 5512 5512 5512 5512 5514 5515 5515 5516 5517 5518 5519 5521 5523 5525 5527 5529 5531 5533 5535 5537 5540 5542
5505 5504 5503 5502 5502 5501 5501 5500 5500 5500 5500 5500 5501 5501 5501 5502 5502 5503 5503 5504 5505 5506 5506 5507 5508 5508 5509 5511 5512 5514 5516 5517 5519 5522 5524 5526 5528 5530
5497 5496 5495 5494 5493 5492 5492 5493 5493 5493 5492 5493 5493 5493 5494 5494 5494 5495 5495 5495 5497 5497 5497 5498 5499 5499 5501 5502 5503 5505 5506 5507 5509 5511 5513 5515 5516 5518
5490 5488 5487 5486 5485 5484 5484 5485 5486 5486 5485 5486 5486 5487 5487 5487 5487 5487 5487 5488 5488 5489 5489 5489 5490 5491 5492 5494 5495 5496 5497 5499 5500 5501 5502 5504 5505 5506
5482 5481 5480 5479 5478 5477 5477 5478 5478 5478 5479 5479 5480 5480 5480 5480 5480 5480 5480 5480 5480 5481 5482 5481 5483 5483 5484 5486 5487 5488 5489 5490 5490 5491 5492 5494 5495 5496
5474 5473 5472 5472 5471 5471 5471 5472 5472 5472 5473 5474 5474 5474 5474 5474 5474 5473 5473 5472 5473 5473 5474 5474 5475 5476 5476 5477 5479 5480 5480 5481 5482 5482 5483 5484 5485 5486
5467 5466 5466 5465 5465 5465 5466 5466 5466 5467 5468 5468 5468 5469 5468 5468 5467 5467 5466 5466 5466 5466 5467 5467 5467 5468 5469 5470 5471 5472 5472 5473 5473 5474 5475 5476 5477 5478
5460 5460 5459 5459 5460 5460 5461 5461 5461 5462 5462 5462 5462 5462 5462 5462 5462 5461 5461 5461 5461 5461 5461 5461 5461 5462 5462 5463 5464 5465 5465 5466 5466 5467 5467 5468 5469 5470
5454 5454 5454 5454 5455 5455 5456 5456 5456 5456 5456 5456 5456 5456 5456 5456 5456 5456 5456 5455 5455 5456 5456 5455 5455 5455 5456 5457 5458 5458 5459 5459 5460 5460 5461 5461 5462 5462
5449 5449 5449 5449 5449 5450 5450 5451 5451 5451 5451 5451 5450 5450 5450 5450 5450 5450 5450 5450 5450 5450 5450 5450 5450 5450 5451 5452 5452 5452 5453 5453 5453 5454 5455 5455 5456 5456
5444 5444 5444 5444 5444 5445 5445 5446 5446 5446 5446 5445 5445 5445 5445 5445 5445 5445 5445 5445 5445 5445 5445 5445 5445 5445 5446 5446 5447 5447 5447 5447 5448 5448 5449 5450 5450 5450
5439 5439 5439 5439 5439 5439 5440 5440 5440 5440 5440 5440 5440 5440 5440 5440 5440 5440 5440 5440 5440 5440 5440 5440 5440 5440 5441 5442 5442 5442 5442 5443 5443 5444 5444 5445 5445 5445
5434 5433 5433 5433 5434 5434 5434 5435 5435 5435 5435 5435 5435 5435 5435 5435 5435 5435 5435 5435 5435 5435 5436 5436 5436 5436 5436 5437 5438 5438 5438 5439 5439 5440 5440 5441 5441 5441
5428 5428 5428 5428 5428 5428 5429 5429 5429 5430 5430 5430 5430 5430 5430 5430 5430 5430 5431 5431 5431 5432 5432 5432 5432 5432 5433 5433 5434 5434 5434 5435 5436 5436 5436 5437 5437 5438
5422 5422 5422 5422 5422 5422 5423 5424 5424 5424 5425 5425 5425 5426 5426 5426 5426 5427 5427 5427 5428 5428 5429 5429 5430 5430 5430 5430 5431 5431 5431 5432 5432 5432 5433 5433 5434 5434